Location: St. Louis
(38.6270°N, 90.1994°W)
Time: 11:25:24
(UTC-06:00)

A-11 Canister half - All Passes

Search period start: 06 December 2021 00:00
Search period end: 16 December 2021 00:00
Orbit: 1524 x 1685 km, 47.3° (Epoch: 05 December)

Date Brightness Start Highest point End Pass type
(mag) Time Alt. Az. Time Alt. Az. Time Alt. Az.
06 Dec - 00:15:21 10° SW 00:25:26 72° SE 00:35:30 10° ENE visible
06 Dec - 02:20:58 10° W 02:31:01 60° NNW 02:40:57 10° ENE visible
06 Dec - 04:27:45 10° WNW 04:37:40 54° N 04:47:17 10° E visible
06 Dec - 06:33:32 10° WNW 06:43:36 89° SW 06:53:19 10° SE visible
06 Dec - 08:39:38 10° WNW 08:47:48 31° SW 08:55:45 10° S daylight
06 Dec - 21:53:12 10° SSE 21:59:55 20° SE 22:06:40 10° E night (unlit)
06 Dec - 23:53:42 10° SW 00:03:44 69° SE 00:13:47 10° ENE night (unlit)
07 Dec - 01:59:11 10° W 02:09:15 61° NNW 02:19:13 10° ENE visible
07 Dec - 04:05:59 10° WNW 04:15:54 54° N 04:25:32 10° E visible
07 Dec - 06:11:48 10° WNW 06:21:55 89° NNE 06:31:39 10° ESE visible
07 Dec - 08:17:49 10° WNW 08:26:11 33° SW 08:34:20 10° S daylight
07 Dec - 21:31:58 10° SSE 21:38:19 19° ESE 21:44:41 10° E night (unlit)
07 Dec - 23:32:04 10° SW 23:42:03 66° SE 23:52:04 10° ENE night (unlit)
08 Dec - 01:37:24 10° W 01:47:29 62° NNW 01:57:30 10° ENE visible
08 Dec - 03:44:13 10° WNW 03:54:07 53° N 04:03:47 10° E visible
08 Dec - 05:50:04 10° WNW 06:00:13 86° NNE 06:09:58 10° ESE visible
08 Dec - 07:56:00 10° WNW 08:04:34 35° SW 08:12:55 10° SSE daylight
08 Dec - 21:10:46 10° SSE 21:16:42 17° ESE 21:22:39 10° E night (unlit)
08 Dec - 23:10:27 10° SW 23:20:22 63° SE 23:30:20 10° ENE night (unlit)
09 Dec - 01:15:38 10° W 01:25:44 64° NNW 01:35:47 10° ENE visible
09 Dec - 03:22:26 10° WNW 03:32:21 53° N 03:42:02 10° E visible
09 Dec - 05:28:21 10° WNW 05:38:30 84° NNE 05:48:18 10° ESE visible
09 Dec - 07:34:11 10° WNW 07:42:57 37° SW 07:51:28 10° SSE daylight
09 Dec - 20:49:38 10° SSE 20:55:06 16° ESE 21:00:34 10° E night (unlit)
09 Dec - 22:48:50 10° SW 22:58:41 60° SE 23:08:36 10° ENE night (unlit)
10 Dec - 00:53:52 10° WSW 01:03:59 65° NNW 01:14:03 10° ENE visible
10 Dec - 03:00:40 10° WNW 03:10:34 53° N 03:20:16 10° E visible
10 Dec - 05:06:37 10° WNW 05:16:47 81° NNE 05:26:36 10° ESE visible
10 Dec - 07:12:24 10° WNW 07:21:20 39° SW 07:30:00 10° SSE daylight
10 Dec - 20:28:35 10° SSE 20:33:30 15° ESE 20:38:25 10° E night (unlit)
10 Dec - 22:27:14 10° SSW 22:37:01 58° SE 22:46:52 10° ENE night (unlit)
11 Dec - 00:32:06 10° WSW 00:42:13 67° NNW 00:52:20 10° ENE visible
11 Dec - 02:38:53 10° WNW 02:48:47 53° N 02:58:31 10° E visible
11 Dec - 04:44:53 10° WNW 04:55:04 79° NNE 05:04:55 10° ESE visible
11 Dec - 06:50:37 10° WNW 06:59:42 41° SW 07:08:30 10° SSE daylight
11 Dec - 20:07:39 10° SSE 20:11:54 13° ESE 20:16:10 10° E visible
11 Dec - 22:05:40 10° SSW 22:15:20 55° SE 22:25:08 10° ENE night (unlit)
12 Dec - 00:10:21 10° WSW 00:20:28 69° NNW 00:30:37 10° ENE visible
12 Dec - 02:17:07 10° WNW 02:27:00 52° N 02:36:45 10° ENE visible
12 Dec - 04:23:09 10° WNW 04:33:21 77° NNE 04:43:12 10° ESE visible
12 Dec - 06:28:50 10° WNW 06:38:04 44° SW 06:47:01 10° SSE visible
12 Dec - 19:46:52 10° SE 19:50:18 12° ESE 19:53:45 10° E visible
12 Dec - 21:44:05 10° SSW 21:53:40 52° SE 22:03:23 10° ENE visible
12 Dec - 23:48:36 10° WSW 23:58:44 70° NNW 00:08:54 10° ENE night (unlit)
13 Dec - 01:55:19 10° WNW 02:05:13 52° N 02:15:00 10° ENE visible
13 Dec - 04:01:25 10° WNW 04:11:37 75° NNE 04:21:30 10° ESE visible
13 Dec - 06:07:03 10° WNW 06:16:25 46° SW 06:25:30 10° SSE visible
13 Dec - 19:26:26 10° SE 19:28:43 11° ESE 19:30:59 10° ESE visible
13 Dec - 21:22:31 10° SSW 21:32:00 50° SE 21:41:38 10° ENE visible
13 Dec - 23:26:51 10° WSW 23:36:59 72° NNW 23:47:11 10° ENE night (unlit)
14 Dec - 01:33:32 10° WNW 01:43:26 52° N 01:53:14 10° ENE visible
14 Dec - 03:39:41 10° WNW 03:49:52 73° NNE 03:59:47 10° ESE visible
14 Dec - 05:45:17 10° WNW 05:54:46 49° SW 06:03:58 10° SSE visible
14 Dec - 07:57:14 10° WSW 07:57:59 10° WSW 07:58:42 10° WSW daylight
14 Dec - 21:00:59 10° SSW 21:10:21 47° SE 21:19:53 10° ENE visible
14 Dec - 23:05:07 10° WSW 23:15:14 74° NNW 23:25:27 10° ENE night (unlit)
15 Dec - 01:11:46 10° WNW 01:21:39 52° N 01:31:28 10° ENE visible
15 Dec - 03:17:56 10° WNW 03:28:09 71° NNE 03:38:04 10° ESE visible
15 Dec - 05:23:32 10° WNW 05:33:07 51° SW 05:42:26 10° SSE visible
15 Dec - 07:33:41 10° WSW 07:36:23 11° WSW 07:39:04 10° SW daylight
15 Dec - 20:39:26 10° SSW 20:48:41 45° SE 20:58:06 10° ENE visible
15 Dec - 22:43:23 10° WSW 22:53:30 76° NNW 23:03:44 10° ENE night (unlit)
